Miscellaneous Local Product
Issued by NWS North Platte, NE

Home | Current Version | Previous Version | Text Only | Print | Product List | Glossary On
Versions: 1 2 3 4 5 6 7 8 9 10 11 12 13 14 15 16 17 18 19 20 21 22 23 24 25 26 27 28 29 30 31 32 33 34 35 36 37 38 39 40 41 42 43 44 45 46 47 48 49 50
000
AXUS43 KLBF 281410
MISLBF


WESTERN AND NORTH CENTRAL NEBRASKA HOURLY WEATHER ROUNDUP
NATIONAL WEATHER SERVICE NORTH PLATTE NE
900 AM CDT THU AUG 28 2014

***STATIONS NOT REPORTING VARIABLES SUCH AS SKY/WEATHER OR
PRESSURE ARE PROVIDED BY THE NEBRASKA DEPARTMENT OF
ROADS...RAWS...AND APRS NETWORKS...AND ARE NOT UNDER
NATIONAL WEATHER SERVICE QUALITY CONTROL***

...OBSERVATIONS IN AND NEAR THE EASTERN PANHANDLE OF NEBRASKA...

CITY           SKY/WX    TMP DP  RH WIND       PRES   REMARKS
PINE RIDGE     CLOUDY    65  63  93 N9        29.99S
CHADRON        CLOUDY    64  62  93 NW8       30.01R
ALLIANCE       CLOUDY    63  60  90 NW10      30.02R
SIDNEY         SUNNY     62  54  74 NW12      30.07R
WHITECLAY        N/A     63  62  96 NW6         N/A
RUSHVILLE        N/A     63  62  94 W13         N/A
GORDON           N/A     66  66  99 NE13        N/A
LISCO            N/A     66  62  86 W10         N/A
BIG SPRINGS      N/A     62  61  96 CALM        N/A
$$

...OBSERVATIONS IN NORTH CENTRAL NEBRASKA...

CITY           SKY/WX    TMP DP  RH WIND       PRES   REMARKS
VALENTINE      PTSUNNY   70  68  93 E7        29.92F
THEDFORD       CLOUDY    70  64  82 CALM      29.96R
AINSWORTH      CLOUDY    67  67 100 CALM      29.92F FOG
O`NEILL        CLOUDY    70  69  97 SE9       29.93R
ORD            LGT RAIN  68  66  93 CALM      29.93S
BROKEN BOW     CLOUDY    67  65  93 CALM      29.95R FOG
SPRINGVIEW       N/A     69  68  96 CALM        N/A
ROSE             N/A     72  72 100 SE5         N/A
NEWPORT          N/A     71  70  95 S3          N/A
SARGENT          N/A     66  65  98 CALM        N/A
COMSTOCK         N/A     72  72  99 CALM        N/A
CHAMBERS         N/A     70  68  93 S3          N/A
EWING            N/A     69  68  98 S5          N/A
$$

...OBSERVATIONS IN SOUTHWEST NEBRASKA AND FAR NORTHEAST COLORADO...

CITY           SKY/WX    TMP DP  RH WIND       PRES   REMARKS
WRAY             N/A     63  62  96 W8        30.04R
HOLYOKE        FAIR      64  61  88 NW7       30.04R
IMPERIAL       SUNNY     65  61  87 NW6       30.00R
OGALLALA       SUNNY     63  62  98 W3        30.00R
NORTH PLATTE   MOSUNNY   67  62  84 W7        29.98R
MCCOOK         SUNNY     65  62  90 W8        29.98S
LEXINGTON      MOSUNNY   67  65  92 CALM      29.95S
PAXTON           N/A     60  58  95 CALM        N/A
SUTHERLAND       N/A     62  60  93 W6          N/A
BRADY            N/A     64  62  93 CALM        N/A
GOTHENBURG       N/A     65  61  86 CALM        N/A
CALLAWAY         N/A     64  64  99 CALM        N/A
$$

...SOME WEATHER OBSERVATIONS FROM AROUND THE REGION...

CITY           SKY/WX    TMP DP  RH WIND       PRES   REMARKS
DENVER         MOSUNNY   57  50  77 S13       30.14S
LARAMIE        LGT RAIN  46  44  93 E5        30.25R FOG
CHEYENNE       PTSUNNY   53  45  74 W8        30.17R
SCOTTSBLUFF    CLOUDY    62  60  93 W10       30.05S
RAPID CITY     CLOUDY    65  60  84 CALM      30.00R
PIERRE         LGT RAIN  67  67 100 NE8       29.91S FOG
WINNER         CLOUDY    69  67  93 E5        29.91R
SIOUX FALLS    LGT RAIN  68  66  93 SE10      29.95F FOG
OMAHA          CLOUDY    71  68  90 SE10      29.95F
GRAND ISLAND   CLOUDY    70  68  93 SE5       29.92R
KANSAS CITY    CLOUDY    79  73  82 S8        29.98S
WICHITA        CLOUDY    78  65  63 S9        29.97S
HAYS           SUNNY     72  64  78 SE8       29.91F
LIBERAL        SUNNY     66  59  77 W13       29.97R
GOODLAND       SUNNY     63  60  90 NW9       30.04S
$$



USA.gov is the U.S. government's official web portal to all federal, state and local government web resources and services.